Showing default

QIANFAN-24, 61557

Orbit data source: Space-Track

QIANFAN-24, 61557 is a Chinese payload satellite in LEO that was launched on Tue, 15 Oct 2024 UTC via a CHANG ZHENG 6A launch vehicle from the Taiyaun Space Center, China (TSC). Payloads include a variety of satellites, spacecraft, and rockets equipped with specific instruments for various scientific and technological missions. These include communications satellites like Starlink; space stations such as the ISS; scientific satellites like the Hubble; Earth observation satellites from companies like Planet Labs, Umbra, and HawkEye 360; GPS; miniature CubeSats for education and research; and military/defense satellites.

Loading next visibility...
QIANFAN-24 details
Identifier
61557, 2024-185F
Orbit
LEO
Last TLE update17 hours ago
Origin
Flag of CNYUANX (CN / PRC)
ManufacturerGESIH/SECM
MissionOperational Commercial Communications
Bus & MotorQIANFAN, Unknown motor
Mass300 kg wet, ~300 kg dry
Launch date (UTC)
2024-10-15 (4 months ago)
Launch vehicle
CHANG ZHENG 6A
Launch site
Taiyaun Space Center, China (TSC)
Object type
Payload
Rocket body
Debris
Shape & HBRBox + 1 Pan, 10 m
Radar Cross Section13.200 m², Large (>1 m²)

Expand to show TLE details & history

TLE from 17 hours ago
0 QIANFAN-24
1 61557U 24185F   25035.56674500  .00001047  00000-0  45663-3 0  9991
2 61557  88.9864 113.4049 0008423 224.3789 135.6729 14.23222135 25750
Epoch: 2025-02-04T13:36Z
Definitive object data (Epoch: 2025-02-04T13:36:06.767Z)
Latitude-0.00001°
Longitude134.40651°
Altitude821.871 km
Speed7.44 km/s
True Right ascension07h 33m 37s
True Declination0° 00' 00"
Sunlit
Object was in full shadow at TLE epoch
Visualization TLE readout
Latitude75.20148°
Longitude138.14324°
Altitude832.495 km
Speed7.441 km/s
Apparent Right ascension21h 28m 37s
Apparent Declination42° 18' 37"
Sunlit
Object is in full shadow
Visualization observer readout
Local Sidereal Time08:51:55
Azimuth353.174° N
Elevation-7.355°
Doppler factor1
Orbital elements
Apogee altitude817.479 km
Perigee altitude805.367 km
Semi-major axis7,189.56 km
Eccentricity0.0008423
Inclination88.9864°
RAAN113.4049°
Arg. of periapsis224.3789°
True anomaly135.74029°
Mean anomaly135.6729°
Eccentric anomaly135.7066°
Mean motion3.56033 °/min
BSTAR0.00045663
Orbital period101.11 mins
Loading maneuver chart data...
Loading historical data...
Loading historical data...
Loading historical data...
Loading historical data...
Loading historical data...
Loading historical data...
Loading historical data...

QIANFAN-24 Visibility forecast

Observer location: undefined°, undefined

Span
Click to sort rows by Start time (UTC) header in descending order
Start Az.
Max El. time (UTC)
Max El. Az.
Max El.
End time (UTC)
End Az.
10 mins2025-02-05 17:10:41.329Z5.81° NNE2025-02-05 17:15:41.329Z115.871° SE43.422°2025-02-05 17:20:41.329Z175.032° S
7 mins2025-02-06 04:33:41.329Z120.735° SE2025-02-06 04:36:41.329Z70.594° E25.212°2025-02-06 04:40:41.329Z22.497° NNE
8 mins2025-02-06 06:13:41.329Z220.337° SW2025-02-06 06:17:41.329Z285.574° WNW28.295°2025-02-06 06:21:41.329Z337.379° NNW
|